Location: ?????????
(41.3174°N, 22.5600°E)
Time: 15:01:37
(UTC+00:00)

Daily predictions for brighter satellites

Satellite Brightness Start Highest point End
(mag) Time Altitude Azimuth Time Altitude Azimuth Time Altitude Azimuth
MetOp-A 4.2 17:58:48 10° SSE 18:04:09 79° ENE 18:09:31 10° N
Cosmos 921 Rocket 3.2 18:00:08 10° NNW 18:04:24 76° WSW 18:08:34 10° S
Cosmos 1408 Rocket 3.6 18:01:03 10° N 18:05:28 88° E 18:09:54 10° S
Cosmos 1842 Rocket 3.7 18:03:18 10° S 18:07:46 89° W 18:12:17 10° N
OBJECT-B 0.9 18:05:53 10° SSE 18:09:03 55° ENE 18:12:14 10° N
Cosmos 841 Rocket 4.4 18:08:29 10° NNW 18:13:27 49° WSW 18:18:22 10° S
Cosmos 2208 Rocket 4.2 18:08:00 10° NNW 18:13:27 89° WSW 18:18:55 10° SSE
Intercosmos 25 Rocket 4.4 18:08:57 10° N 18:14:48 42° ENE 18:18:36 10° SE
CZ-4 R/B 4.3 18:15:48 10° SW 18:18:27 17° W 18:21:05 10° NW
Cosmos 1242 Rocket 4.0 18:18:47 10° SE 18:21:25 19° E 18:24:01 10° NE
Cosmos 1805 Rocket 4.2 18:19:40 10° N 18:23:45 38° ENE 18:27:45 10° SE
DELTA 2 R/B (1) 3.6 18:20:44 10° W 18:26:17 72° S 18:31:37 11° ESE
Cosmos 1745 Rocket 4.2 18:27:39 10° N 18:33:43 52° ENE 18:39:40 10° SSE
FALCON 9 DEB 2.9 18:32:03 10° NW 18:35:05 70° SW 18:37:15 17° SE
Cosmos 1862 4.5 18:31:54 10° NNW 18:35:44 44° W 18:39:34 10° SSW
IGS 5A 4.3 18:34:44 15° SE 18:37:40 33° ENE 18:41:23 10° N
Cosmos 1503 Rocket 4.3 18:33:05 10° S 18:37:57 45° ESE 18:42:54 10° NNE
Cosmos 1743 Rocket 3.7 18:33:45 10° N 18:38:05 79° W 18:42:27 10° S
IRIS 3.5 18:35:57 10° W 18:38:16 89° WSW 18:40:26 15° E
Resurs 1-3 3.6 18:34:30 10° SSE 18:38:50 71° ENE 18:43:13 10° N
USA 290 3.4 18:37:37 10° N 18:40:29 28° ENE 18:42:04 18° ESE
Cosmos 1933 3.7 18:38:02 10° SSE 18:41:52 44° E 18:45:43 10° NNE
Cosmos 1437 Rocket 2.8 18:41:12 10° S 18:45:03 83° WNW 18:49:00 10° N
Cosmos 2221 4.4 18:41:15 10° SW 18:45:08 33° WNW 18:49:03 10° NNW
BREEZE-M DEB (TANK) 2.8 18:44:22 10° WNW 18:46:29 37° SSW 18:48:22 18° SSE
X-37B 1.7 18:46:19 10° WNW 18:49:23 42° N 18:52:00 13° ENE
Cosmos 1500 Rocket 4.2 18:45:23 10° NNW 18:49:41 56° W 18:53:56 10° S
BREEZE M DEB (TANK) 4.4 18:44:15 10° WNW 18:49:57 27° NNW 18:52:30 10° NE
Ariane Rocket 3.1 18:45:29 10° S 18:50:32 80° WSW 18:55:37 10° NNW
Meteor 1-20 Rocket 4.3 18:45:15 10° N 18:50:46 56° ENE 18:55:02 16° SSE
S3M 4.0 18:44:33 10° S 18:50:55 77° E 18:57:16 10° N
BREEZE-M R/B 3.3 18:55:22 10° W 18:57:59 37° NNW 19:00:17 10° NE
Cosmos 1666 Rocket 4.1 18:53:52 10° N 18:58:01 40° ENE 19:00:11 24° SE
Landsat 7 4.0 18:56:49 20° SE 18:59:56 54° ENE 19:04:35 10° N
Cosmos 1782 3.3 19:00:48 24° SSE 19:02:43 40° E 19:06:29 10° NNE
USA 245 4.3 19:05:36 15° NE 19:05:36 15° NE 19:06:30 10° NNE
SPOT 1/Viking Rocket 4.0 19:04:52 23° SE 19:07:47 46° ENE 19:12:44 10° N
Cosmos 1354 Rocket 3.9 19:04:34 10° SSW 19:09:46 76° ESE 19:15:01 10° NNE
Cosmos 2278 Rocket 3.1 19:08:22 24° SE 19:09:56 27° ESE 19:14:37 10° NE
SJ 16-02 3.1 19:15:16 16° E 19:15:16 16° E 19:17:13 10° NE
NOSS 3-3 (A) 3.7 19:11:52 10° SSW 19:17:25 67° ESE 19:23:43 10° NE
Cosmos 1602 3.7 19:13:41 10° N 19:17:31 62° E 19:18:52 37° SE
NOSS 3-3 (C) 3.7 19:11:58 10° SSW 19:17:32 66° ESE 19:23:49 10° NE
Sich 1 3.2 19:13:26 10° NNW 19:17:45 70° W 19:20:45 20° S
Resurs 01 Rocket 1.7 19:15:30 20° S 19:18:30 74° WSW 19:22:58 10° NNW
MetOp-B 4.1 19:15:52 24° SSE 19:19:08 74° ENE 19:24:30 10° N
CRYOSAT 2 4.5 19:17:05 27° SSE 19:19:36 60° E 19:24:25 10° N
Cosmos 1844 Rocket 3.9 19:14:22 10° SW 19:19:38 43° WNW 19:24:57 10° NNE
SPOT 3 Rocket 3.6 19:18:05 21° S 19:21:38 81° WSW 19:26:48 10° NNW
Meteor 1-25 Rocket 4.4 19:17:11 10° NNW 19:23:02 82° W 19:27:14 20° S
CZ-4C R/B 3.5 19:26:53 10° NNW 19:33:55 49° NE 19:38:37 25° ESE
Cosmos 1151 Rocket 3.1 19:33:03 23° SSW 19:35:42 79° W 19:40:05 10° N
SL-4 R/B 3.5 19:33:40 10° WNW 19:37:37 31° SW 19:38:59 26° SSW
Iridium 4 Rocket 4.3 19:38:32 34° ESE 19:40:08 42° E 19:45:38 10° NNE
Cosmos 1812 2.9 19:41:49 51° E 19:41:49 51° E 19:45:31 10° NNE
ATLAS 5 CENTAUR R/B 2.4 19:38:25 10° NW 19:44:13 82° WSW 19:47:08 36° SSE
Meteor 1-5 Rocket 4.3 19:42:07 10° N 19:47:24 53° ENE 19:48:43 42° ESE
JB-3 4.1 19:45:57 10° NNE 19:49:51 74° ESE 19:50:05 71° SE
Cosmos 2084 3.6 19:46:38 10° SW 19:50:44 69° NW 19:54:57 10° NNE
Cosmos 783 Rocket 4.5 19:46:34 10° NNW 19:51:49 78° WSW 19:53:35 42° S
Cosmos 1833 Rocket 3.0 19:50:42 10° NNW 19:56:15 54° ENE 19:57:45 42° ESE
Cosmos 773 Rocket 3.9 19:52:01 10° NNW 19:57:21 88° WSW 19:58:50 49° SSE
Cosmos 1515 Rocket 3.4 19:56:55 63° SSE 19:57:33 78° E 20:01:58 10° N
Spot 2 Rocket 3.4 19:56:46 45° S 19:58:21 82° WSW 20:03:26 10° NNW
Cosmos 1666 3.4 19:57:05 10° N 20:00:05 42° NE 20:00:05 42° NE
SPOT 5 2.9 20:01:57 55° SE 20:02:58 71° ENE 20:08:11 10° N
ARIANE 5 R/B 2.7 20:06:12 57° SSW 20:06:52 68° WSW 20:11:12 10° NNW
Terra 2.0 20:06:40 52° E 20:07:05 54° ENE 20:11:44 10° N
Cosmos 1633 Rocket 4.2 20:05:11 10° NNW 20:09:16 39° W 20:10:43 30° SW
Meteor 1-14 Rocket 4.4 20:04:20 10° NNW 20:10:10 69° W 20:12:15 40° SSW
ERS-1 Rocket 2.8 20:10:41 61° SSE 20:11:34 87° ENE 20:16:38 10° NNW
DELTA 2 R/B (1) 4.2 20:07:16 10° W 20:12:22 39° SSW 20:12:22 39° SSW
Cosmos 2154 Rocket 4.4 20:08:10 10° N 20:14:15 46° ENE 20:15:23 42° ESE
Cosmos 1470 Rocket 4.0 20:15:10 10° NNW 20:19:34 54° W 20:20:10 50° SW
Cosmos 2184 Rocket 3.9 20:15:54 10° N 20:22:09 79° E 20:23:31 56° SSE
CARTOSAT-1 4.2 20:23:35 45° WSW 20:23:59 47° W 20:28:09 10° NNW
X-37B 2.9 20:23:00 10° WNW 20:24:16 22° WNW 20:24:16 22° WNW
Cosmos 2074 Rocket 3.9 20:22:41 10° N 20:29:01 89° W 20:30:31 56° S
USA 305 4.0 20:25:13 10° NW 20:29:10 36° NNE 20:29:31 35° NE
Meteor 1-27 Rocket 3.7 20:29:39 61° ESE 20:30:03 62° E 20:35:52 10° NNE
Meteor 2-12 Rocket 4.3 20:24:51 10° N 20:30:54 69° E 20:31:45 61° SE
Cosmos 2082 Rocket 2.4 20:26:10 10° NNW 20:31:41 54° ENE 20:32:17 51° E
COSMOS 2406 3.1 20:26:13 10° NNW 20:31:53 79° WSW 20:32:38 66° S
Nadezhda 1 Rocket 3.9 20:31:30 59° SSE 20:32:34 71° E 20:38:49 10° NNE
Cosmos 1933 Rocket 3.9 20:29:45 10° NNW 20:33:54 57° W 20:33:54 57° W
Cosmos 1898 Rocket 4.5 20:40:40 35° ENE 20:40:40 35° ENE 20:44:19 10° NNE
Cosmos 923 Rocket 4.4 20:35:06 10° N 20:40:14 51° ENE 20:40:17 51° ENE
Cosmos 1271 Rocket 3.8 20:46:42 44° NW 20:46:42 44° NW 20:50:03 10° N
USA 306 3.8 20:44:19 10° NW 20:47:58 44° NNE 20:47:58 44° NNE
Cosmos 1610 Rocket 4.3 20:45:10 10° N 20:51:20 87° E 20:51:58 74° SSE
SJ 16-02 2.3 20:52:10 41° W 20:52:32 42° WNW 20:56:47 10° N
Cosmos 2278 Rocket 3.2 20:50:06 19° WSW 20:53:45 43° WNW 20:59:09 10° NNE
Meteor 1-11 Rocket 3.8 20:51:15 10° NNW 20:57:13 73° W 20:57:46 68° SW
Cosmos 990 Rocket 4.2 21:00:05 64° NE 21:00:05 64° NE 21:04:35 10° NNE
Cosmos 1238 Rocket 4.4 20:55:19 10° N 21:01:06 42° ENE 21:01:06 42° ENE
Cosmos 2228 Rocket 3.9 21:01:58 47° WNW 21:01:58 47° WNW 21:05:51 10° N
NOSS 3-4 (A) 3.8 20:54:52 10° NW 21:02:00 83° NE 21:03:33 61° SE
NOSS 3-4 (C) 3.8 20:54:58 10° NNW 21:02:06 83° NE 21:03:39 61° SE
Cosmos 2369 Rocket 4.1 21:06:19 18° ENE 21:06:19 18° ENE 21:08:19 10° NE
Cosmos 2341 Rocket 4.1 21:00:13 10° N 21:06:34 61° E 21:06:51 61° E
Cosmos 972 Rocket 4.5 20:59:56 10° NNW 21:07:06 89° W 21:07:52 73° SSE
Cosmos 1340 Rocket 4.3 21:05:20 10° N 21:07:52 36° N 21:07:52 36° N
Cosmos 1943 Rocket 3.0 21:11:09 38° ENE 21:11:09 38° ENE 21:15:01 10° NE
USA 307 4.2 21:10:00 10° NW 21:12:48 39° NNW 21:12:48 39° NNW
ATLAS 2AS CENTAUR R/B 2.9 21:08:20 10° NNW 21:15:36 62° NE 21:16:52 54° E
Cosmos 2112 Rocket 4.3 21:13:42 10° NNW 21:18:29 66° NNE 21:18:29 66° NNE
CZ-4C R/B 3.5 21:15:29 10° NW 21:22:38 45° WSW 21:23:48 43° SW
Cosmos 2218 Rocket 4.3 21:18:07 10° N 21:24:16 54° E 21:24:17 54° E
ATLAS 5 CENTAUR R/B 4.5 21:25:12 10° WNW 21:28:25 15° WSW 21:28:41 14° WSW
Cosmos 1833 Rocket 4.4 21:35:36 10° NW 21:39:27 21° W 21:39:27 21° W
Meteor 1-18 Rocket 4.4 21:45:05 65° NNE 21:45:05 65° NNE 21:49:54 10° NNE
Cosmos 1937 Rocket 4.0 21:45:55 56° N 21:45:55 56° N 21:50:06 10° NNE
Terra 4.1 21:45:33 16° W 21:45:33 16° W 21:48:01 10° NW
Cosmos 1680 Rocket 4.3 21:41:39 10° NNW 21:45:47 47° WNW 21:45:47 47° WNW
Cosmos 2297 4.0 21:50:18 59° WNW 21:50:18 59° WNW 21:55:51 10° NNE
SL-8 Rocket 4.0 21:45:37 10° N 21:51:47 77° WNW 21:51:47 77° WNW
DNEPR-1 R/B 4.5 21:55:31 64° N 21:55:31 64° N 21:59:56 10° NNE
Cosmos 1818 4.0 21:51:28 10° NNW 21:56:16 57° NNE 21:56:16 57° NNE
ALOS 2 4.0 21:59:30 37° N 21:59:30 37° N 22:02:10 10° N
Cosmos 2082 Rocket 4.0 22:11:13 10° NW 22:14:08 20° W 22:14:08 20° W
Gbstr 26 Del rocket 4.1 22:27:06 10° NW 22:33:59 64° NNE 22:34:28 62° NE
Cosmos 1867 4.0 22:47:48 58° NNE 22:47:48 58° NNE 22:52:10 10° NNE
Cosmos 2369 Rocket 2.8 22:48:04 51° NW 22:48:04 51° NW 22:53:13 10° NNE
Cosmos 1821 Rocket 4.0 22:45:15 10° N 22:51:18 73° WNW 22:51:18 73° WNW
Cosmos 1943 Rocket 3.7 22:52:39 25° WNW 22:53:36 26° NW 22:58:17 10° N
Cosmos 1934 Rocket 4.1 22:49:55 10° N 22:55:55 66° ENE 22:55:55 66° ENE
SeaSat 1 3.1 22:51:12 10° NNE 22:55:08 51° NNW 22:55:08 51° NNW
USA 215 3.1 22:57:12 75° ESE 22:57:49 86° NE 23:04:24 10° NW
Cosmos 1125 Rocket 4.0 22:59:27 56° NNE 22:59:27 56° NNE 23:03:34 10° NNE
SL-16 R/B 4.4 22:55:34 15° ESE 22:59:00 24° ENE 23:03:50 10° N
ATLAS 2AS CENTAUR R/B 4.1 23:00:12 10° NW 23:04:16 25° W 23:04:16 25° W
RESURS DK-1 4.4 23:05:57 10° NNW 23:07:42 24° NNW 23:07:42 24° NNW
Cosmos 1066 Rocket 4.4 23:13:32 68° NW 23:13:32 68° NW 23:18:43 10° N
ISS -0.6 23:17:26 15° NNE 23:17:26 15° NNE 23:18:27 10° NNE
Cosmos 1535 Rocket 4.4 23:10:11 10° N 23:16:27 86° E 23:16:27 86° E
Cosmos 1656 Rocket 4.3 23:17:56 45° NW 23:17:56 45° NW 23:22:57 10° NNE
Meteor 1-23 Rocket 4.3 23:19:59 78° N 23:19:59 78° N 23:25:26 10° N
Helios 1B rocket 4.4 23:25:51 10° NE 23:28:15 23° ENE 23:28:15 23° ENE
Cosmos 1400 Rocket 4.5 23:27:12 10° N 23:30:00 32° NE 23:30:00 32° NE
CZ-2D R/B 3.1 23:27:23 10° NNE 23:32:24 37° E 23:32:26 37° E
ATLAS CENTAUR R/B 3.3 23:34:53 24° N 23:34:53 24° N 23:36:47 10° NNE
USA 281 3.4 23:32:04 47° SE 23:33:57 68° ENE 23:40:29 10° NNW
CZ-4 R/B 4.3 23:32:55 10° NNE 23:36:56 60° N 23:36:56 60° N
Helios 1A 4.3 23:40:37 35° NNW 23:40:37 35° NNW 23:43:04 10° NNW
Cosmos 2297 Rocket 4.4 23:36:06 10° N 23:40:29 22° NE 23:44:49 10° ESE
Cosmos 1269 Rocket 4.1 23:37:52 10° NNW 23:42:58 72° NE 23:42:58 72° NE
Meteor 2-20 4.4 23:45:57 71° SE 23:46:29 76° E 23:52:39 10° N
ADEOS II 3.7 23:43:30 10° NE 23:47:39 23° E 23:48:43 22° ESE
Cosmos 44 Rocket 3.5 23:45:24 10° NNW 23:50:23 73° NNE 23:50:23 73° NNE
Resurs 1-4 Rocket 2.3 23:48:01 10° NNE 23:53:13 59° E 23:53:18 59° ESE
